Showing default

HTV-X1, 66174

Orbit data source: Space-Track

HTV-X1, 66174 is a payload satellite owned by JAXA (JP) in LEO that was launched on Sun, 26 Oct 2025 UTC via a H3-24W launch vehicle from the Tanegashima Space Center (TNSTA). Payload-class satellites include a variety of spacecraft equipped with specific instruments for various scientific and technological missions. These include communications satellites like Starlink; space stations such as the ISS; scientific satellites like the Hubble; Earth observation satellites from companies like Planet Labs, Umbra, and HawkEye 360; GPS; miniature CubeSats for education and research; and military/defense satellites.

Loading next visibility...
Identifier
66174, 2025-241A
Orbit
LEO
Country
Flag of JPJP / JPN
Related business
Manufacturer
MHITO?
Mission
Operational spacecraft
Bus & Motor
HTV-X, HBT-5 X 4
Mass
16,000 kg wet, 7,600 kg dry
Launch date (UTC)
2025-10-26 (6 days ago)
Launch vehicle
H3-24W
Launch site
Tanegashima Space Center (TNSTA)
Object type
Payload
Rocket body
Debris
Shape & HBR
Unknown
Radar Cross Section
RCS unknown

Expand to show TLE details & history
Last TLE update: 16 hours ago

TLE from 16 hours ago
0 HTV-X1
1 66174U 25241A   25304.16626396  .00017194  00000-0  31236-3 0  9991
2 66174  51.6343 353.2496 0004911 359.9780   0.1208 15.49645314   773
Epoch: 2025-10-31T03:59Z
TLE epoch observation values (Epoch: 2025-10-31T03:59:25.206Z)
Latitude
0.00002°
Longitude
-106.32001°
Altitude
415.166 km
Speed
7.665 km/s
True Right ascension
23h 32m 59s
True Declination
0° 00' 00"
Sunlit
Object was in full shadow at epoch
Visualization orbit readout
Latitude
Unknown
Longitude
Unknown
Altitude
Unknown
Speed
Unknown
Apparent Right ascension
Unknown
Apparent Declination
Unknown
Sunlit
N/A
Visualization observer readout
Local Sidereal Time
15:44:22
Azimuth
Unknown
Elevation
Unknown
Doppler factor
Unknown
Orbital elements
Apogee altitude
421.609 km
Perigee altitude
414.934 km
Semi-major axis
6,796.409 km
Eccentricity
0.00049
Inclination
51.6343°
RAAN
353.2496°
Arg. of periapsis
359.978°
True anomaly
0.12092°
Mean anomaly
0.1208°
Eccentric anomaly
0.12086°
Mean motion
3.87368 °/min
Orbital period
92.93 mins
BSTAR
0.00031236
Loading maneuver chart data...
Computing Atmospheric mass density...
Loading historical data...
Loading historical data...
Loading historical data...
Loading historical data...
Loading historical data...
Loading historical data...
Loading historical data...
Other satellites on launch #241 in the year 2025 (2025-10-26 UTC)

Documentation

Showing up to 5 results
|